This is the latest recevied weather packets stored in our database for station/object W4SKW. If no packets are shown the sender has not sent any weather packets the latest 10 day(s).
| Time | Temp. | Humidity | Pressure | Rain* | Wind** | Luminosity | Snow |
|---|---|---|---|---|---|---|---|
| 1777827005 | 17.22° C | 56% | 1022.7 hPa | 0 mm | - | 760 W/m² | - |
| 1777826703 | 17.22° C | 49% | 1022.5 hPa | 0 mm | - | 761 W/m² | - |
| 1777826398 | 17.78° C | 58% | 1022.6 hPa | 0 mm | - | 752 W/m² | - |
| 1777826091 | 17.22° C | 51% | 1022.8 hPa | 0 mm | - | 745 W/m² | - |
| 1777825787 | 17.22° C | 50% | 1022.8 hPa | 0 mm | - | 737 W/m² | - |
| 1777825484 | 17.22° C | 54% | 1022.7 hPa | 0 mm | - | 735 W/m² | - |
| 1777825181 | 16.11° C | 55% | 1022.8 hPa | 0 mm | - | 727 W/m² | - |
| 1777824872 | 15.56° C | 57% | 1023 hPa | 0 mm | - | 724 W/m² | - |
| 1777824429 | 16.11° C | 53% | 1023 hPa | 0 mm | - | 698 W/m² | - |
| 1777824125 | 16.11° C | 53% | 1023 hPa | 0 mm | - | 698 W/m² | - |
| 1777823821 | 16.11° C | 53% | 1023 hPa | 0 mm | - | 698 W/m² | - |
| 1777823519 | 16.11° C | 53% | 1022.9 hPa | 0 mm | - | 687 W/m² | - |
| 1777823216 | 15.56° C | 59% | 1023.1 hPa | 0 mm | - | 670 W/m² | - |
| 1777822914 | 15° C | 54% | 1023.2 hPa | 0 mm | - | 430 W/m² | - |
| 1777822612 | 15° C | 54% | 1023.2 hPa | 0 mm | - | 430 W/m² | - |
| 1777822309 | 15° C | 54% | 1023.2 hPa | 0 mm | - | 430 W/m² | - |
| 1777822006 | 14.44° C | 60% | 1023.3 hPa | 0 mm | - | 570 W/m² | - |
| 1777821704 | 14.44° C | 59% | 1023.4 hPa | 0 mm | - | 71 W/m² | - |
| 1777821402 | 14.44° C | 58% | 1023.3 hPa | 0 mm | - | 148 W/m² | - |
| 1777821098 | 13.33° C | 60% | 1023.4 hPa | 0 mm | - | 378 W/m² | - |
| 1777820795 | 13.33° C | 60% | 1023.4 hPa | 0 mm | - | 378 W/m² | - |
| 1777820491 | 13.89° C | 59% | 1023.5 hPa | 0 mm | - | 62 W/m² | - |
| 1777820188 | 13.89° C | 59% | 1023.5 hPa | 0 mm | - | 62 W/m² | - |
| 1777819886 | 13.89° C | 64% | 1023.3 hPa | 0 mm | - | 71 W/m² | - |
| 1777819583 | 13.89° C | 64% | 1023.3 hPa | 0 mm | - | 71 W/m² | - |
* Rain latest hour (hover to see other rain measurements)
** Current wind speed in m/s (hover to see current wind gust speed)